Location: *
(2.5500°S, 65.9667°W)
Time: 10:33:48
(UTC+00:00)

DELTA-4 R/B - Pass Details

Date: 28 May 2022
Orbit: 448 x 34502 km, 13.4° (Epoch: 30 June)

Event Time Altitude Azimuth Distance (km) Brightness Sun altitude
Rises 01:42:01 0° 254° (WSW) 6,794 8.3 -47.0°
Reaches altitude 10° 01:44:41 10° 252° (WSW) 6,611 8.1 -47.5°
Maximum altitude 05:12:52 86° 19° (NNE) 32,651 10.7 -67.3°
Drops below altitude 10° 11:19:38 10° 68° (ENE) 5,528 11.3 12.6°
Sets 11:21:58 0° 72° (ENE) 5,796 9.5 13.1°
